QPF
0.00 0.00 0.00 0.00 0.00 0.00 0.00 0.00 0.00 0.00 0.00 0.00 0.00 0.00 0.00 0.00 0.00 0.00 0.00 0.00 0.00 0.00 0.00 0.00 0.00 0.00 0.01 0.01 0.01 0.01 0.01 0.01 0.02 0.02 0.02 0.02 0.01 0.01 0.01 0.01 0.01 0.01 0.01 0.01 0.01 0.02 0.03 0.03 0.02
0.00 0.00 0.00 0.00 0.00 0.00 0.00 0.00 0.00 0.00 0.00 0.00 0.00 0.00 0.00 0.00 0.00 0.00 0.00 0.00 0.00 0.00 0.00 0.00 0.00 0.00 0.00 0.01 0.01 0.00 0.01 0.01 0.02 0.02 0.03 0.02 0.02 0.01 0.01 0.01 0.01 0.01 0.01 0.01 0.02 0.02 0.02 0.03 0.02
0.00 0.00 0.00 0.00 0.00 0.00 0.00 0.00 0.00 0.00 0.00 0.00 0.00 0.00 0.00 0.00 0.00 0.00 0.00 0.00 0.00 0.00 0.00 0.00 0.00 0.00 0.01 0.01 0.01 0.01 0.00 0.01 0.01 0.02 0.03 0.04 0.02 0.02 0.01 0.01 0.01 0.02 0.01 0.01 0.01 0.01 0.01 0.02 0.02
0.00 0.00 0.00 0.00 0.00 0.00 0.00 0.00 0.00 0.00 0.00 0.00 0.00 0.00 0.00 0.00 0.00 0.00 0.00 0.00 0.00 0.00 0.00 0.00 0.00 0.01 0.01 0.01 0.01 0.01 0.00 0.00 0.01 0.01 0.02 0.03 0.04 0.03 0.02 0.01 0.01 0.01 0.02 0.01 0.00 0.00 0.00 0.01 0.01
0.00 0.00 0.00 0.00 0.00 0.00 0.00 0.00 0.00 0.00 0.00 0.00 0.00 0.00 0.00 0.00 0.00 0.00 0.00 0.00 0.00 0.00 0.00 0.00 0.00 0.01 0.01 0.01 0.01 0.00 0.00 0.00 0.00 0.01 0.02 0.02 0.03 0.03 0.03 0.02 0.01 0.01 0.01 0.01 0.01 0.00 0.00 0.01 0.01
0.01 0.00 0.00 0.00 0.00 0.00 0.00 0.00 0.00 0.00 0.00 0.00 0.00 0.00 0.00 0.00 0.00 0.00 0.00 0.00 0.00 0.00 0.00 0.00 0.00 0.01 0.01 0.00 0.00 0.00 0.00 0.01 0.01 0.01 0.01 0.02 0.03 0.03 0.02 0.01 0.01 0.01 0.01 0.00 0.00 0.00 0.01 0.01 0.01
0.00 0.00 0.00 0.00 0.00 0.00 0.00 0.00 0.00 0.00 0.00 0.00 0.00 0.00 0.00 0.00 0.00 0.00 0.00 0.00 0.00 0.00 0.00 0.00 0.00 0.00 0.01 0.01 0.00 0.00 0.00 0.00 0.01 0.01 0.01 0.01 0.02 0.02 0.02 0.02 0.01 0.01 0.01 0.01 0.00 0.00 0.00 0.00 0.00
0.00 0.00 0.00 0.00 0.00 0.00 0.00 0.00 0.00 0.00 0.00 0.00 0.00 0.00 0.00 0.00 0.00 0.00 0.00 0.00 0.00 0.00 0.00 0.00 0.01 0.01 0.01 0.01 0.00 0.00 0.00 0.00 0.00 0.01 0.01 0.00 0.01 0.01 0.02 0.01 0.01 0.01 0.01 0.01 0.01 0.01 0.00 0.00 0.00
0.01 0.01 0.00 0.00 0.00 0.00 0.00 0.00 0.00 0.00 0.00 0.00 0.00 0.00 0.00 0.00 0.00 0.00 0.00 0.00 0.00 0.00 0.00 0.00 0.01 0.01 0.01 0.01 0.00 0.00 0.00 0.00 0.00 0.00 0.00 0.00 0.01 0.01 0.02 0.01 0.01 0.01 0.02 0.02 0.01 0.01 0.01 0.00 0.00
0.01 0.00 0.00 0.00 0.00 0.00 0.00 0.00 0.00 0.00 0.00 0.00 0.00 0.00 0.00 0.00 0.00 0.00 0.00 0.00 0.00 0.00 0.00 0.00 0.00 0.01 0.02 0.01 0.01 0.01 0.00 0.00 0.00 0.00 0.00 0.00 0.01 0.03 0.03 0.02 0.01 0.01 0.01 0.01 0.02 0.02 0.01 0.01 0.01
0.00 0.00 0.00 0.00 0.00 0.00 0.00 0.00 0.00 0.00 0.00 0.00 0.00 0.00 0.00 0.00 0.00 0.00 0.00 0.01 0.01 0.01 0.00 0.01 0.01 0.02 0.01 0.01 0.01 0.01 0.01 0.01 0.01 0.01 0.00 0.00 0.01 0.02 0.03 0.03 0.02 0.01 0.01 0.02 0.01 0.01 0.01 0.01 0.02
0.00 0.00 0.00 0.00 0.00 0.00 0.00 0.00 0.00 0.00 0.00 0.00 0.00 0.00 0.00 0.00 0.00 0.00 0.00 0.00 0.01 0.01 0.01 0.01 0.01 0.01 0.01 0.02 0.02 0.02 0.02 0.01 0.01 0.01 0.01 0.00 0.01 0.01 0.02 0.01 0.01 0.02 0.02 0.03 0.03 0.02 0.02 0.01 0.02
0.01 0.00 0.00 0.00 0.00 0.00 0.00 0.00 0.00 0.00 0.00 0.00 0.00 0.00 0.00 0.00 0.00 0.00 0.00 0.00 0.00 0.00 0.00 0.00 0.00 0.00 0.01 0.01 0.01 0.00 0.01 0.01 0.01 0.01 0.01 0.00 0.01 0.01 0.02 0.02 0.02 0.01 0.01 0.02 0.03 0.03 0.03 0.03 0.02
0.00 0.00 0.00 0.00 0.00 0.00 0.00 0.00 0.00 0.00 0.00 0.00 0.00 0.00 0.00 0.00 0.00 0.00 0.00 0.00 0.00 0.00 0.00 0.00 0.00 0.00 0.00 0.00 0.00 0.00 0.00 0.00 0.01 0.01 0.01 0.01 0.01 0.01 0.01 0.01 0.01 0.01 0.01 0.01 0.01 0.01 0.02 0.02 0.02
0.00 0.00 0.00 0.00 0.00 0.00 0.00 0.00 0.00 0.00 0.00 0.00 0.00 0.00 0.00 0.00 0.00 0.00 0.00 0.00 0.00 0.00 0.00 0.00 0.00 0.00 0.00 0.00 0.00 0.00 0.00 0.00 0.00 0.00 0.00 0.01 0.01 0.01 0.01 0.01 0.01 0.00 0.00 0.00 0.00 0.01 0.01 0.01 0.01
0.01 0.01 0.01 0.00 0.00 0.00 0.00 0.00 0.00 0.00 0.00 0.00 0.00 0.00 0.00 0.00 0.00 0.00 0.00 0.00 0.00 0.00 0.00 0.00 0.00 0.00 0.00 0.00 0.01 0.00 0.00 0.00 0.00 0.00 0.00 0.00 0.01 0.01 0.01 0.01 0.01 0.01 0.01 0.01 0.00 0.00 0.00 0.01 0.01
0.02 0.01 0.01 0.00 0.00 0.00 0.00 0.00 0.00 0.00 0.00 0.00 0.00 0.00 0.00 0.00 0.00 0.00 0.00 0.00 0.00 0.00 0.00 0.00 0.00 0.00 0.00 0.00 0.01 0.00 0.00 0.00 0.00 0.00 0.00 0.00 0.00 0.01 0.01 0.01 0.02 0.02 0.01 0.01 0.01 0.01 0.01 0.01 0.00
0.01 0.01 0.00 0.00 0.00 0.00 0.00 0.00 0.00 0.00 0.00 0.00 0.00 0.00 0.00 0.00 0.00 0.00 0.00 0.00 0.00 0.00 0.00 0.00 0.00 0.00 0.00 0.00 0.00 0.00 0.00 0.00 0.00 0.00 0.00 0.00 0.00 0.00 0.01 0.01 0.01 0.02 0.02 0.01 0.01 0.01 0.01 0.01 0.00
0.00 0.00 0.00 0.00 0.00 0.00 0.00 0.00 0.00 0.00 0.00 0.00 0.00 0.00 0.00 0.00 0.00 0.00 0.00 0.00 0.00 0.00 0.00 0.00 0.00 0.00 0.00 0.00 0.00 0.00 0.00 0.00 0.00 0.00 0.00 0.00 0.00 0.00 0.01 0.01 0.01 0.02 0.01 0.01 0.01 0.01 0.00 0.00 0.00
0.01 0.01 0.00 0.00 0.00 0.00 0.00 0.00 0.00 0.00 0.00 0.00 0.00 0.00 0.00 0.00 0.00 0.00 0.00 0.00 0.00 0.00 0.00 0.00 0.00 0.00 0.00 0.00 0.00 0.00 0.00 0.00 0.00 0.00 0.01 0.00 0.00 0.00 0.01 0.01 0.01 0.01 0.01 0.01 0.01 0.00 0.01 0.01 0.00
0.03 0.01 0.00 0.00 0.00 0.00 0.00 0.00 0.00 0.00 0.00 0.00 0.00 0.00 0.00 0.00 0.00 0.00 0.00 0.00 0.00 0.00 0.00 0.00 0.00 0.00 0.00 0.00 0.00 0.00 0.00 0.00 0.00 0.00 0.01 0.01 0.00 0.01 0.01 0.01 0.01 0.01 0.01 0.01 0.00 0.00 0.01 0.01 0.01
0.03 0.01 0.01 0.01 0.01 0.01 0.00 0.00 0.00 0.00 0.00 0.00 0.00 0.00 0.00 0.00 0.00 0.00 0.00 0.00 0.00 0.00 0.00 0.00 0.00 0.00 0.00 0.00 0.00 0.00 0.00 0.00 0.00 0.00 0.00 0.01 0.01 0.01 0.01 0.02 0.02 0.01 0.01 0.01 0.00 0.01 0.01 0.01 0.01
0.01 0.01 0.01 0.02 0.02 0.01 0.01 0.00 0.00 0.00 0.00 0.00 0.00 0.00 0.00 0.00 0.00 0.00 0.00 0.00 0.00 0.00 0.00 0.00 0.00 0.00 0.00 0.00 0.00 0.00 0.00 0.00 0.00 0.00 0.00 0.01 0.01 0.02 0.01 0.01 0.01 0.01 0.01 0.00 0.00 0.00 0.01 0.01 0.01
0.02 0.02 0.02 0.03 0.04 0.03 0.01 0.00 0.00 0.00 0.00 0.00 0.00 0.00 0.00 0.00 0.00 0.00 0.00 0.00 0.00 0.00 0.00 0.00 0.00 0.00 0.00 0.00 0.00 0.00 0.00 0.00 0.00 0.00 0.00 0.00 0.01 0.02 0.02 0.02 0.01 0.01 0.01 0.00 0.00 0.00 0.00 0.00 0.00
0.04 0.05 0.06 0.07 0.06 0.02 0.00 0.00 0.00 0.00 0.00 0.00 0.00 0.00 0.00 0.00 0.00 0.00 0.00 0.00 0.00 0.00 0.00 0.00 0.00 0.00 0.00 0.00 0.00 0.00 0.00 0.00 0.00 0.00 0.00 0.00 0.01 0.02 0.03 0.02 0.01 0.01 0.00 0.00 0.00 0.00 0.00 0.00 0.00
0.03 0.03 0.03 0.03 0.01 0.00 0.00 0.00 0.00 0.00 0.00 0.00 0.00 0.00 0.00 0.00 0.00 0.00 0.00 0.00 0.00 0.00 0.00 0.00 0.00 0.00 0.00 0.00 0.00 0.00 0.00 0.00 0.00 0.00 0.00 0.01 0.01 0.01 0.03 0.02 0.01 0.01 0.01 0.01 0.00 0.00 0.00 0.00 0.00
0.03 0.02 0.01 0.01 0.01 0.00 0.00 0.00 0.00 0.00 0.00 0.00 0.00 0.00 0.00 0.00 0.00 0.00 0.00 0.00 0.00 0.00 0.00 0.00 0.00 0.00 0.00 0.00 0.00 0.00 0.00 0.00 0.00 0.00 0.00 0.01 0.01 0.01 0.01 0.02 0.02 0.01 0.01 0.00 0.00 0.00 0.01 0.00 0.00
0.03 0.02 0.02 0.03 0.02 0.01 0.00 0.00 0.00 0.00 0.00 0.00 0.00 0.00 0.00 0.00 0.00 0.00 0.00 0.00 0.00 0.00 0.00 0.00 0.00 0.00 0.00 0.00 0.00 0.00 0.00 0.00 0.00 0.00 0.01 0.01 0.02 0.01 0.01 0.02 0.02 0.02 0.01 0.01 0.01 0.01 0.01 0.01 0.00
0.03 0.04 0.04 0.03 0.01 0.01 0.01 0.00 0.00 0.00 0.00 0.00 0.00 0.00 0.00 0.00 0.00 0.00 0.00 0.00 0.00 0.00 0.00 0.00 0.00 0.00 0.00 0.00 0.00 0.00 0.00 0.00 0.00 0.01 0.01 0.01 0.02 0.02 0.02 0.02 0.02 0.02 0.01 0.01 0.01 0.01 0.01 0.01 0.01
0.02 0.02 0.03 0.03 0.02 0.01 0.01 0.00 0.00 0.00 0.00 0.00 0.00 0.00 0.01 0.00 0.00 0.00 0.00 0.00 0.00 0.00 0.00 0.01 0.01 0.01 0.00 0.00 0.00 0.00 0.00 0.00 0.01 0.01 0.01 0.01 0.02 0.02 0.03 0.02 0.01 0.01 0.02 0.02 0.01 0.01 0.02 0.02 0.01
MSLP
1009.88 1010.29 1010.73 1011.10 1011.30 1011.24 1010.91 1010.34 1009.58 1008.76 1007.98 1007.34 1006.90 1006.67 1006.62 1006.69 1006.81 1006.93 1007.02 1007.09 1007.15 1007.27 1007.48 1007.80 1008.23 1008.74 1009.29 1009.81 1010.27 1010.65 1010.96 1011.22 1011.47 1011.76 1012.10 1012.49 1012.91 1013.33 1013.70 1014.01 1014.25 1014.42 1014.57 1014.70 1014.85 1015.02 1015.21 1015.41 1015.57
1010.23 1010.68 1011.11 1011.40 1011.48 1011.28 1010.82 1010.12 1009.28 1008.41 1007.61 1006.98 1006.55 1006.31 1006.24 1006.28 1006.36 1006.45 1006.53 1006.61 1006.74 1006.95 1007.28 1007.72 1008.27 1008.87 1009.48 1010.04 1010.51 1010.90 1011.20 1011.46 1011.73 1012.02 1012.37 1012.76 1013.16 1013.55 1013.89 1014.16 1014.37 1014.53 1014.67 1014.81 1014.97 1015.16 1015.36 1015.54 1015.68
1010.57 1011.04 1011.41 1011.61 1011.56 1011.23 1010.64 1009.85 1008.96 1008.08 1007.30 1006.68 1006.26 1006.02 1005.92 1005.92 1005.95 1006.00 1006.07 1006.18 1006.37 1006.67 1007.10 1007.66 1008.30 1008.99 1009.65 1010.23 1010.72 1011.10 1011.41 1011.68 1011.95 1012.26 1012.60 1012.98 1013.36 1013.71 1014.02 1014.26 1014.44 1014.59 1014.74 1014.90 1015.09 1015.30 1015.51 1015.69 1015.81
1010.85 1011.29 1011.59 1011.68 1011.50 1011.06 1010.38 1009.54 1008.65 1007.79 1007.05 1006.49 1006.09 1005.86 1005.74 1005.69 1005.67 1005.69 1005.74 1005.87 1006.10 1006.48 1007.01 1007.65 1008.37 1009.10 1009.79 1010.38 1010.87 1011.25 1011.56 1011.83 1012.12 1012.43 1012.79 1013.16 1013.52 1013.84 1014.11 1014.33 1014.50 1014.65 1014.82 1015.01 1015.23 1015.47 1015.69 1015.87 1015.98
1011.02 1011.40 1011.61 1011.58 1011.29 1010.75 1010.03 1009.20 1008.34 1007.56 1006.91 1006.42 1006.08 1005.86 1005.72 1005.64 1005.58 1005.55 1005.58 1005.72 1006.00 1006.43 1007.01 1007.71 1008.47 1009.22 1009.91 1010.49 1010.95 1011.32 1011.63 1011.92 1012.22 1012.55 1012.92 1013.29 1013.65 1013.95 1014.21 1014.40 1014.57 1014.73 1014.92 1015.15 1015.41 1015.67 1015.91 1016.08 1016.17
1011.07 1011.36 1011.44 1011.30 1010.92 1010.34 1009.61 1008.83 1008.07 1007.41 1006.88 1006.48 1006.21 1006.02 1005.88 1005.76 1005.66 1005.60 1005.62 1005.76 1006.05 1006.51 1007.13 1007.85 1008.61 1009.34 1010.00 1010.55 1010.98 1011.33 1011.64 1011.93 1012.26 1012.62 1013.01 1013.40 1013.76 1014.06 1014.31 1014.50 1014.67 1014.85 1015.06 1015.31 1015.59 1015.87 1016.11 1016.27 1016.34
1011.01 1011.18 1011.14 1010.90 1010.46 1009.86 1009.18 1008.49 1007.86 1007.34 1006.94 1006.66 1006.47 1006.31 1006.17 1006.03 1005.89 1005.79 1005.79 1005.92 1006.22 1006.69 1007.31 1008.02 1008.75 1009.45 1010.06 1010.56 1010.95 1011.28 1011.58 1011.90 1012.26 1012.65 1013.07 1013.48 1013.86 1014.17 1014.41 1014.61 1014.78 1014.97 1015.19 1015.46 1015.74 1016.02 1016.25 1016.39 1016.43
1010.86 1010.91 1010.77 1010.44 1009.96 1009.39 1008.78 1008.21 1007.72 1007.35 1007.09 1006.92 1006.79 1006.66 1006.52 1006.35 1006.18 1006.05 1006.02 1006.14 1006.43 1006.89 1007.49 1008.16 1008.86 1009.50 1010.05 1010.50 1010.87 1011.18 1011.48 1011.82 1012.20 1012.64 1013.09 1013.53 1013.93 1014.26 1014.51 1014.71 1014.89 1015.07 1015.29 1015.54 1015.82 1016.08 1016.28 1016.40 1016.41
1010.67 1010.61 1010.38 1010.00 1009.52 1008.98 1008.46 1008.01 1007.66 1007.43 1007.28 1007.19 1007.11 1007.00 1006.84 1006.64 1006.43 1006.28 1006.22 1006.32 1006.59 1007.02 1007.59 1008.23 1008.87 1009.46 1009.96 1010.37 1010.71 1011.01 1011.32 1011.68 1012.10 1012.57 1013.06 1013.53 1013.95 1014.29 1014.56 1014.76 1014.94 1015.11 1015.32 1015.55 1015.79 1016.02 1016.19 1016.28 1016.28
1010.47 1010.33 1010.04 1009.63 1009.16 1008.68 1008.25 1007.91 1007.67 1007.53 1007.46 1007.42 1007.36 1007.24 1007.06 1006.82 1006.59 1006.40 1006.32 1006.39 1006.63 1007.03 1007.56 1008.15 1008.74 1009.28 1009.75 1010.13 1010.46 1010.76 1011.09 1011.47 1011.92 1012.42 1012.93 1013.43 1013.87 1014.24 1014.52 1014.73 1014.90 1015.07 1015.25 1015.46 1015.66 1015.85 1015.99 1016.06 1016.04
1010.28 1010.09 1009.77 1009.36 1008.92 1008.50 1008.14 1007.87 1007.71 1007.63 1007.59 1007.56 1007.48 1007.34 1007.12 1006.85 1006.58 1006.36 1006.25 1006.29 1006.50 1006.87 1007.35 1007.90 1008.45 1008.95 1009.39 1009.77 1010.09 1010.41 1010.76 1011.16 1011.63 1012.15 1012.69 1013.21 1013.67 1014.06 1014.36 1014.59 1014.78 1014.94 1015.11 1015.29 1015.46 1015.61 1015.73 1015.77 1015.75
1010.10 1009.89 1009.57 1009.17 1008.77 1008.39 1008.09 1007.87 1007.73 1007.66 1007.61 1007.55 1007.44 1007.26 1007.01 1006.71 1006.41 1006.17 1006.03 1006.04 1006.21 1006.53 1006.96 1007.46 1007.98 1008.46 1008.90 1009.28 1009.62 1009.96 1010.33 1010.75 1011.24 1011.77 1012.32 1012.85 1013.33 1013.75 1014.08 1014.34 1014.55 1014.73 1014.91 1015.07 1015.23 1015.36 1015.46 1015.49 1015.49
1009.94 1009.72 1009.41 1009.04 1008.67 1008.33 1008.05 1007.84 1007.69 1007.59 1007.50 1007.39 1007.23 1007.01 1006.73 1006.41 1006.09 1005.83 1005.67 1005.65 1005.77 1006.04 1006.42 1006.87 1007.36 1007.84 1008.28 1008.68 1009.06 1009.43 1009.82 1010.26 1010.74 1011.27 1011.82 1012.36 1012.86 1013.31 1013.69 1014.00 1014.26 1014.48 1014.68 1014.86 1015.02 1015.15 1015.24 1015.29 1015.29
1009.78 1009.56 1009.26 1008.93 1008.58 1008.26 1007.98 1007.75 1007.56 1007.40 1007.24 1007.07 1006.86 1006.61 1006.31 1005.99 1005.67 1005.40 1005.22 1005.16 1005.23 1005.44 1005.76 1006.17 1006.64 1007.11 1007.58 1008.02 1008.43 1008.85 1009.27 1009.71 1010.20 1010.71 1011.25 1011.79 1012.31 1012.79 1013.22 1013.60 1013.93 1014.21 1014.46 1014.68 1014.86 1015.01 1015.12 1015.18 1015.22
1009.60 1009.39 1009.11 1008.81 1008.48 1008.17 1007.86 1007.58 1007.32 1007.08 1006.85 1006.61 1006.36 1006.08 1005.79 1005.48 1005.18 1004.92 1004.72 1004.62 1004.64 1004.78 1005.05 1005.41 1005.86 1006.34 1006.84 1007.33 1007.81 1008.27 1008.72 1009.18 1009.66 1010.15 1010.67 1011.20 1011.73 1012.24 1012.73 1013.18 1013.59 1013.95 1014.27 1014.54 1014.77 1014.96 1015.09 1015.19 1015.25
1009.43 1009.22 1008.96 1008.68 1008.37 1008.04 1007.70 1007.35 1007.01 1006.67 1006.35 1006.04 1005.75 1005.47 1005.19 1004.91 1004.64 1004.39 1004.19 1004.05 1004.02 1004.10 1004.30 1004.63 1005.06 1005.57 1006.11 1006.67 1007.22 1007.74 1008.23 1008.71 1009.17 1009.65 1010.14 1010.65 1011.18 1011.71 1012.25 1012.76 1013.25 1013.70 1014.09 1014.43 1014.72 1014.95 1015.13 1015.26 1015.36
1009.25 1009.05 1008.82 1008.57 1008.27 1007.93 1007.54 1007.10 1006.65 1006.20 1005.78 1005.40 1005.07 1004.78 1004.53 1004.29 1004.05 1003.83 1003.62 1003.46 1003.37 1003.40 1003.55 1003.84 1004.27 1004.81 1005.42 1006.05 1006.69 1007.28 1007.83 1008.33 1008.79 1009.24 1009.70 1010.18 1010.69 1011.24 1011.80 1012.37 1012.92 1013.44 1013.91 1014.31 1014.66 1014.94 1015.17 1015.35 1015.50
1009.06 1008.90 1008.72 1008.51 1008.23 1007.87 1007.41 1006.87 1006.29 1005.71 1005.16 1004.69 1004.31 1004.01 1003.78 1003.58 1003.39 1003.19 1002.99 1002.82 1002.70 1002.67 1002.79 1003.06 1003.50 1004.08 1004.76 1005.49 1006.21 1006.89 1007.50 1008.03 1008.50 1008.93 1009.35 1009.79 1010.28 1010.81 1011.39 1011.99 1012.58 1013.16 1013.68 1014.15 1014.55 1014.89 1015.17 1015.41 1015.61
1008.86 1008.77 1008.67 1008.52 1008.27 1007.88 1007.35 1006.69 1005.96 1005.21 1004.52 1003.94 1003.48 1003.15 1002.93 1002.77 1002.62 1002.46 1002.28 1002.10 1001.96 1001.91 1002.00 1002.27 1002.73 1003.36 1004.11 1004.93 1005.75 1006.52 1007.20 1007.77 1008.24 1008.66 1009.05 1009.46 1009.91 1010.42 1010.99 1011.59 1012.22 1012.82 1013.39 1013.90 1014.36 1014.75 1015.10 1015.40 1015.66
1008.64 1008.66 1008.68 1008.61 1008.39 1007.98 1007.36 1006.56 1005.65 1004.72 1003.85 1003.12 1002.57 1002.19 1001.96 1001.82 1001.72 1001.61 1001.46 1001.30 1001.16 1001.11 1001.19 1001.46 1001.94 1002.62 1003.44 1004.35 1005.26 1006.11 1006.85 1007.46 1007.95 1008.36 1008.73 1009.11 1009.53 1010.01 1010.57 1011.17 1011.81 1012.43 1013.03 1013.58 1014.08 1014.53 1014.94 1015.31 1015.65
1008.37 1008.54 1008.70 1008.73 1008.55 1008.11 1007.39 1006.44 1005.34 1004.20 1003.14 1002.25 1001.58 1001.13 1000.88 1000.76 1000.70 1000.64 1000.55 1000.42 1000.31 1000.26 1000.36 1000.64 1001.14 1001.85 1002.72 1003.69 1004.66 1005.57 1006.37 1007.03 1007.54 1007.96 1008.32 1008.68 1009.09 1009.56 1010.11 1010.71 1011.35 1012.00 1012.62 1013.21 1013.75 1014.25 1014.72 1015.16 1015.58
1008.02 1008.37 1008.68 1008.82 1008.68 1008.20 1007.38 1006.27 1004.98 1003.63 1002.37 1001.31 1000.52 1000.00 999.73 999.63 999.61 999.62 999.58 999.52 999.44 999.42 999.53 999.82 1000.33 1001.04 1001.93 1002.92 1003.93 1004.88 1005.72 1006.40 1006.95 1007.39 1007.77 1008.14 1008.56 1009.04 1009.60 1010.22 1010.88 1011.55 1012.20 1012.82 1013.41 1013.97 1014.50 1015.01 1015.51
1007.57 1008.10 1008.55 1008.78 1008.68 1008.17 1007.25 1006.00 1004.53 1002.99 1001.56 1000.35 999.45 998.87 998.58 998.50 998.54 998.60 998.64 998.64 998.62 998.63 998.75 999.03 999.53 1000.22 1001.09 1002.07 1003.07 1004.03 1004.88 1005.59 1006.16 1006.64 1007.06 1007.48 1007.93 1008.46 1009.06 1009.73 1010.43 1011.14 1011.83 1012.50 1013.13 1013.73 1014.32 1014.90 1015.47
1007.05 1007.72 1008.28 1008.57 1008.48 1007.94 1006.94 1005.57 1003.97 1002.29 1000.73 999.42 998.44 997.82 997.53 997.48 997.57 997.70 997.81 997.87 997.90 997.94 998.06 998.33 998.78 999.43 1000.25 1001.17 1002.14 1003.06 1003.91 1004.63 1005.24 1005.77 1006.25 1006.74 1007.27 1007.87 1008.55 1009.28 1010.05 1010.81 1011.56 1012.28 1012.96 1013.61 1014.25 1014.87 1015.49
1006.47 1007.21 1007.82 1008.14 1008.05 1007.47 1006.42 1004.99 1003.31 1001.57 999.95 998.60 997.59 996.97 996.69 996.67 996.81 997.00 997.16 997.27 997.33 997.39 997.50 997.74 998.14 998.72 999.46 1000.31 1001.21 1002.09 1002.90 1003.64 1004.28 1004.86 1005.42 1006.00 1006.64 1007.34 1008.11 1008.94 1009.78 1010.62 1011.43 1012.20 1012.92 1013.61 1014.29 1014.95 1015.60
1005.88 1006.62 1007.21 1007.51 1007.38 1006.79 1005.73 1004.29 1002.62 1000.90 999.30 997.98 997.01 996.41 996.16 996.17 996.34 996.55 996.74 996.87 996.95 997.00 997.10 997.30 997.64 998.15 998.80 999.57 1000.39 1001.21 1002.00 1002.73 1003.41 1004.05 1004.70 1005.38 1006.13 1006.94 1007.82 1008.74 1009.67 1010.58 1011.45 1012.27 1013.03 1013.75 1014.44 1015.12 1015.78
1005.34 1005.98 1006.49 1006.71 1006.55 1005.94 1004.91 1003.54 1001.97 1000.36 998.88 997.65 996.76 996.23 996.01 996.03 996.19 996.40 996.57 996.69 996.75 996.79 996.86 997.02 997.31 997.76 998.34 999.03 999.79 1000.56 1001.32 1002.05 1002.76 1003.46 1004.19 1004.97 1005.82 1006.74 1007.72 1008.73 1009.73 1010.70 1011.62 1012.47 1013.26 1013.99 1014.69 1015.37 1016.03
1004.90 1005.37 1005.72 1005.84 1005.62 1005.03 1004.08 1002.85 1001.45 1000.03 998.73 997.67 996.90 996.44 996.25 996.25 996.37 996.52 996.64 996.70 996.72 996.72 996.77 996.91 997.17 997.58 998.13 998.77 999.48 1000.22 1000.97 1001.71 1002.44 1003.19 1003.99 1004.84 1005.77 1006.78 1007.83 1008.90 1009.96 1010.97 1011.91 1012.78 1013.57 1014.30 1014.99 1015.66 1016.30
1004.60 1004.84 1005.00 1004.99 1004.73 1004.17 1003.34 1002.29 1001.13 999.97 998.92 998.06 997.43 997.04 996.86 996.82 996.85 996.89 996.90 996.88 996.83 996.80 996.83 996.96 997.23 997.65 998.19 998.83 999.53 1000.27 1001.01 1001.76 1002.51 1003.30 1004.13 1005.04 1006.02 1007.06 1008.15 1009.26 1010.33 1011.35 1012.30 1013.16 1013.94 1014.66 1015.33 1015.97 1016.60
1004.44 1004.43 1004.40 1004.26 1003.95 1003.45 1002.77 1001.95 1001.06 1000.19 999.41 998.77 998.29 997.96 997.76 997.64 997.55 997.45 997.33 997.20 997.07 997.00 997.03 997.18 997.49 997.95 998.53 999.21 999.93 1000.68 1001.44 1002.19 1002.96 1003.75 1004.60 1005.52 1006.52 1007.57 1008.66 1009.76 1010.83 1011.83 1012.76 1013.59 1014.34 1015.03 1015.68 1016.30 1016.90
Thickness
5726 5731 5734 5729 5714 5709 5718 5742 5761 5764 5768 5776 5779 5777 5769 5761 5755 5741 5763 5776 5775 5772 5767 5763 5761 5760 5759 5758 5757 5756 5754 5753 5753 5752 5751 5750 5749 5748 5748 5747 5746 5746 5745 5744 5743 5742 5741 5740 5739
5723 5730 5726 5717 5705 5703 5721 5745 5754 5760 5766 5771 5773 5772 5765 5759 5763 5760 5765 5771 5772 5769 5764 5760 5758 5757 5755 5754 5753 5752 5751 5750 5749 5748 5747 5747 5746 5745 5744 5744 5743 5742 5741 5740 5739 5738 5737 5736 5735
5719 5725 5714 5708 5707 5713 5730 5750 5753 5760 5765 5764 5762 5765 5761 5756 5762 5761 5765 5770 5769 5765 5760 5756 5754 5753 5752 5751 5749 5748 5747 5746 5745 5744 5743 5743 5742 5741 5740 5740 5739 5738 5737 5736 5735 5734 5733 5732 5731
5714 5711 5709 5704 5709 5728 5740 5748 5754 5752 5756 5759 5756 5751 5755 5761 5763 5762 5765 5767 5764 5760 5756 5752 5751 5749 5748 5746 5745 5744 5743 5742 5741 5740 5739 5739 5738 5737 5736 5735 5735 5734 5733 5732 5731 5730 5729 5728 5728
5708 5701 5694 5697 5711 5731 5745 5750 5751 5745 5746 5751 5751 5743 5742 5754 5761 5761 5762 5763 5760 5756 5753 5748 5747 5745 5744 5742 5741 5740 5739 5738 5737 5736 5735 5735 5734 5733 5732 5731 5730 5730 5729 5728 5727 5726 5725 5724 5724
5694 5696 5689 5694 5712 5730 5741 5747 5745 5742 5743 5748 5746 5739 5736 5749 5752 5754 5757 5758 5756 5753 5749 5744 5742 5741 5739 5738 5737 5735 5734 5733 5732 5732 5731 5730 5730 5729 5728 5727 5726 5725 5724 5724 5723 5722 5721 5720 5719
5686 5686 5689 5701 5711 5722 5735 5743 5738 5736 5736 5742 5747 5735 5733 5741 5747 5751 5752 5752 5751 5749 5745 5741 5738 5736 5735 5734 5732 5731 5730 5729 5728 5728 5727 5726 5726 5725 5724 5723 5722 5721 5720 5719 5718 5718 5717 5716 5715
5689 5685 5689 5698 5706 5716 5732 5737 5737 5733 5733 5745 5746 5732 5727 5736 5744 5746 5746 5745 5744 5743 5741 5738 5735 5733 5731 5730 5728 5727 5726 5725 5724 5724 5723 5722 5721 5721 5720 5718 5717 5717 5716 5715 5714 5713 5712 5712 5711
5684 5673 5681 5696 5704 5714 5725 5724 5728 5733 5731 5734 5737 5735 5735 5738 5739 5737 5735 5734 5735 5735 5735 5735 5733 5731 5729 5727 5725 5723 5722 5721 5720 5720 5719 5718 5717 5717 5716 5714 5713 5712 5711 5710 5710 5709 5708 5707 5707
5671 5667 5684 5700 5707 5711 5716 5717 5719 5719 5717 5720 5723 5729 5732 5732 5730 5727 5727 5726 5726 5727 5729 5731 5729 5728 5726 5724 5721 5720 5718 5717 5717 5716 5715 5714 5714 5713 5712 5711 5709 5708 5707 5706 5705 5705 5704 5703 5702
5670 5672 5686 5695 5702 5704 5705 5709 5714 5709 5706 5715 5717 5719 5722 5723 5723 5722 5723 5724 5724 5724 5725 5726 5726 5724 5722 5720 5719 5717 5715 5714 5713 5713 5712 5711 5710 5709 5708 5706 5705 5704 5702 5701 5701 5700 5700 5699 5698
5668 5675 5683 5688 5692 5693 5695 5700 5702 5704 5709 5720 5722 5720 5718 5717 5717 5718 5719 5721 5721 5721 5720 5721 5721 5720 5718 5717 5715 5713 5712 5711 5710 5709 5708 5707 5706 5705 5703 5702 5700 5699 5698 5697 5696 5696 5695 5695 5694
5661 5668 5677 5681 5683 5685 5687 5689 5693 5699 5708 5715 5717 5715 5713 5713 5714 5717 5719 5720 5719 5717 5717 5717 5717 5715 5713 5712 5710 5709 5708 5707 5706 5705 5704 5703 5701 5700 5699 5697 5696 5694 5693 5692 5691 5691 5690 5690 5689
5660 5663 5667 5672 5674 5678 5677 5681 5685 5695 5703 5705 5706 5707 5708 5710 5712 5713 5714 5714 5715 5714 5713 5713 5712 5711 5709 5707 5705 5704 5704 5702 5701 5700 5699 5698 5696 5695 5693 5691 5690 5688 5687 5686 5686 5685 5684 5684 5683
5653 5649 5654 5663 5667 5670 5669 5669 5680 5693 5697 5697 5699 5702 5704 5707 5709 5709 5711 5711 5711 5711 5710 5709 5708 5707 5704 5702 5701 5700 5699 5697 5696 5694 5693 5692 5691 5689 5687 5685 5684 5682 5681 5680 5679 5678 5678 5677 5676
5638 5636 5638 5658 5662 5664 5655 5658 5683 5692 5691 5690 5694 5697 5699 5703 5706 5707 5709 5709 5708 5707 5706 5705 5704 5702 5700 5698 5696 5694 5693 5692 5690 5688 5687 5686 5684 5683 5680 5678 5676 5675 5674 5673 5671 5670 5669 5668 5667
5624 5626 5635 5648 5659 5659 5652 5658 5679 5688 5687 5686 5689 5693 5695 5698 5701 5703 5705 5704 5704 5703 5701 5699 5698 5696 5694 5692 5690 5688 5687 5685 5684 5682 5681 5679 5678 5676 5673 5671 5669 5668 5666 5664 5663 5661 5660 5658 5657
5620 5625 5636 5641 5651 5652 5648 5655 5670 5679 5681 5682 5685 5689 5691 5693 5695 5698 5699 5699 5699 5697 5696 5693 5692 5691 5689 5686 5684 5681 5679 5678 5677 5675 5674 5672 5671 5669 5666 5664 5662 5660 5658 5655 5654 5652 5651 5649 5648
5626 5628 5632 5640 5647 5644 5643 5650 5661 5671 5674 5677 5680 5683 5686 5688 5692 5694 5694 5693 5691 5690 5689 5687 5686 5685 5682 5679 5676 5673 5671 5670 5669 5668 5666 5665 5663 5661 5658 5656 5654 5651 5649 5647 5645 5643 5641 5639 5638
5614 5616 5622 5630 5636 5635 5635 5643 5657 5666 5670 5674 5677 5679 5681 5682 5684 5685 5686 5685 5684 5683 5682 5681 5680 5678 5677 5674 5672 5668 5666 5663 5662 5660 5658 5657 5656 5653 5650 5648 5645 5642 5640 5637 5635 5633 5630 5628 5627
5605 5607 5613 5618 5622 5625 5624 5631 5650 5663 5668 5672 5674 5677 5678 5677 5676 5677 5677 5677 5676 5675 5674 5674 5673 5671 5670 5668 5665 5661 5657 5654 5652 5650 5649 5649 5647 5645 5642 5639 5636 5633 5631 5627 5625 5623 5620 5616 5615
5594 5607 5609 5608 5603 5603 5613 5607 5644 5654 5658 5663 5666 5668 5670 5671 5671 5670 5670 5669 5669 5668 5667 5666 5665 5664 5663 5660 5657 5653 5649 5645 5644 5643 5641 5640 5638 5635 5633 5630 5627 5624 5622 5618 5616 5614 5610 5606 5602
5593 5600 5600 5598 5594 5592 5603 5599 5627 5649 5649 5656 5660 5662 5663 5664 5664 5663 5663 5662 5661 5660 5659 5657 5656 5655 5654 5652 5649 5646 5642 5639 5637 5635 5632 5630 5628 5626 5623 5621 5618 5615 5611 5609 5606 5603 5600 5596 5593
5586 5585 5584 5584 5579 5573 5596 5595 5615 5639 5649 5653 5655 5656 5656 5657 5657 5656 5655 5654 5652 5651 5649 5648 5646 5645 5644 5643 5641 5638 5634 5631 5628 5625 5622 5620 5618 5616 5613 5611 5608 5605 5601 5598 5595 5593 5590 5586 5583
5572 5563 5556 5556 5556 5570 5601 5599 5615 5643 5652 5652 5650 5649 5650 5649 5648 5647 5645 5644 5642 5640 5639 5638 5637 5635 5635 5633 5632 5630 5627 5624 5620 5617 5614 5611 5608 5606 5603 5601 5598 5595 5592 5588 5585 5582 5579 5576 5573
5562 5563 5558 5555 5560 5578 5595 5594 5617 5639 5644 5646 5645 5643 5641 5640 5639 5638 5637 5635 5633 5631 5630 5629 5627 5626 5625 5623 5622 5621 5618 5615 5612 5609 5606 5603 5600 5597 5594 5591 5588 5585 5582 5578 5575 5571 5568 5565 5562
5552 5556 5570 5563 5568 5568 5581 5601 5615 5627 5628 5630 5630 5630 5629 5629 5629 5628 5627 5626 5624 5622 5621 5620 5618 5616 5615 5614 5612 5610 5608 5605 5603 5600 5597 5593 5590 5587 5584 5581 5577 5574 5571 5567 5564 5560 5556 5553 5550
5553 5557 5551 5546 5549 5557 5579 5590 5597 5607 5613 5616 5617 5617 5618 5619 5619 5618 5616 5615 5614 5613 5611 5610 5608 5606 5605 5603 5601 5600 5597 5595 5592 5589 5585 5583 5580 5577 5573 5569 5566 5563 5560 5556 5552 5549 5545 5542 5539
5540 5542 5545 5545 5552 5555 5564 5581 5606 5605 5608 5606 5607 5608 5608 5609 5608 5606 5605 5604 5602 5601 5599 5599 5597 5596 5594 5592 5590 5587 5585 5583 5580 5577 5574 5571 5568 5565 5561 5558 5555 5552 5548 5544 5540 5537 5533 5530 5527
5536 5539 5537 5535 5542 5553 5556 5567 5596 5597 5599 5598 5597 5599 5599 5599 5597 5595 5593 5591 5589 5588 5587 5586 5586 5584 5582 5581 5578 5576 5573 5571 5568 5564 5561 5558 5555 5552 5549 5547 5543 5539 5536 5532 5528 5525 5522 5518 5515